Wichita Falls, TX

3:04 PM CST on December 16, 2017 (GMT -0600)
Sheppard Air Force Base-Wichita Falls Municipal

Weather History for KSPS - October, 2012

Change the Weather History Date:

Friday, October 5, 2012

  Actual Average Record
Temperature  
Mean Temperature 58 °F 68 °F  
Max Temperature 65 °F 81 °F 100 °F (1937)
Min Temperature 50 °F 56 °F 40 °F (1985)
Degree Days  
Heating Degree Days 7 2  
Month to date heating degree days 7 9  
Since 1 July heating degree days 11 22  
Cooling Degree Days 0 5  
Month to date cooling degree days 13 28  
Year to date cooling degree days 2830 2307  
Growing Degree Days 10 (Base 50)    
Moisture  
Dew Point 49 °F    
Average Humidity 66    
Maximum Humidity 75    
Minimum Humidity 53    
Precipitation  
Precipitation 0.00 in 0.09 in 1.99 in (1930)
Month to date precipitation 0.00 0.42  
Year to date precipitation 18.50 22.96  
Sea Level Pressure  
Sea Level Pressure 30.12 in    
Wind  
Wind Speed 14 mph (NNE)    
Max Wind Speed 25 mph    
Max Gust Speed 30 mph    
Visibility 10 miles    
Events      
T = Trace of Precipitation, MM = Missing Value Source: NWS Daily Summary

Daily Weather History Graph

Daily Weather History Graph

Search for Another Location

Airport or City:

Trip Planner

Search our weather history database for the weather conditions in past years. The results will help you decide how hot, cold, wet, or windy it might be!

Date:

Astronomy

Oct. 05, 2012 Rise Set
Actual Time 7:31 AM CDT 7:12 PM CDT
Civil Twilight 7:06 AM CDT 7:37 PM CDT
Nautical Twilight 6:37 AM CDT 8:05 PM CDT
Astronomical Twilight 6:08 AM CDT 8:34 PM CDT
Moon 10:49 PM CDT (10/5) 12:27 PM CDT (10/5)
Length of Visible Light 12h 30m
Length of Day
11h 40m
Waning Gibbous, 74% of the Moon is Illuminated
Oct 5
Waning Gibbous
Oct 8
Last Quarter
Oct 15
New
Oct 21
First Quarter
Oct 29
Full

Hourly Weather History & Observations

Time (CDT) Temp. Dew Point Humidity Pressure Visibility Wind Dir Wind Speed Gust Speed Precip Events Conditions
12:52 AM 62.1 °F 51.1 °F 67% 30.09 in 10.0 mi North 8.1 mph - N/A   Overcast
1:03 AM 62.6 °F 51.8 °F 68% 30.12 in 10.0 mi North 10.4 mph - N/A   Overcast
1:11 AM 62.6 °F 51.8 °F 68% 30.12 in 10.0 mi North 9.2 mph - N/A   Overcast
1:52 AM 62.1 °F 50.0 °F 65% 30.08 in 10.0 mi North 12.7 mph - N/A   Overcast
2:52 AM 62.6 °F 48.2 °F 59% 30.11 in 10.0 mi NNE 11.5 mph - N/A   Overcast
3:52 AM 61.0 °F 48.0 °F 62% 30.09 in 10.0 mi NNE 15.0 mph - N/A   Overcast
4:52 AM 59.0 °F 46.9 °F 64% 30.09 in 10.0 mi NNE 15.0 mph - N/A   Overcast
5:52 AM 57.9 °F 46.0 °F 65% 30.10 in 10.0 mi North 15.0 mph - N/A   Overcast
6:52 AM 57.0 °F 46.0 °F 67% 30.10 in 10.0 mi North 15.0 mph - N/A   Overcast
7:52 AM 55.9 °F 46.0 °F 69% 30.11 in 10.0 mi North 12.7 mph - N/A   Overcast
8:52 AM 55.9 °F 48.0 °F 75% 30.12 in 10.0 mi North 16.1 mph - N/A   Overcast
9:52 AM 57.2 °F 48.2 °F 72% 30.14 in 10.0 mi North 12.7 mph - N/A   Overcast
10:52 AM 59.0 °F 48.2 °F 67% 30.15 in 10.0 mi NNE 8.1 mph - N/A   Overcast
10:59 AM 59.0 °F 48.2 °F 67% 30.15 in 10.0 mi NE 10.4 mph - N/A   Overcast
11:16 AM 59.0 °F 48.2 °F 67% 30.15 in 10.0 mi NE 8.1 mph - N/A   Overcast
11:52 AM 61.0 °F 50.0 °F 67% 30.12 in 10.0 mi ENE 6.9 mph - N/A   Overcast
12:52 PM 64.0 °F 51.1 °F 63% 30.11 in 10.0 mi North 3.5 mph - N/A   Overcast
1:52 PM 64.0 °F 52.0 °F 65% 30.10 in 10.0 mi North 8.1 mph - N/A   Overcast
2:39 PM 62.6 °F 51.8 °F 68% 30.12 in 10.0 mi North 15.0 mph - N/A   Overcast
2:52 PM 61.0 °F 51.1 °F 70% 30.09 in 10.0 mi NNE 15.0 mph - N/A   Overcast
3:52 PM 60.1 °F 51.1 °F 72% 30.09 in 10.0 mi NNE 15.0 mph - N/A   Overcast
4:52 PM 60.1 °F 48.9 °F 67% 30.09 in 10.0 mi NNE 16.1 mph - N/A   Overcast
5:52 PM 60.1 °F 48.0 °F 64% 30.09 in 10.0 mi NE 13.8 mph - N/A   Overcast
6:52 PM 59.0 °F 48.0 °F 67% 30.11 in 10.0 mi NNE 16.1 mph - N/A   Overcast
7:52 PM 57.9 °F 48.0 °F 70% 30.12 in 10.0 mi NNE 17.3 mph - N/A   Overcast
8:11 PM 57.2 °F 48.2 °F 72% 30.14 in 10.0 mi NE 17.3 mph - N/A   Overcast
8:52 PM 57.0 °F 46.9 °F 69% 30.14 in 10.0 mi NE 16.1 mph - N/A   Overcast
9:52 PM 55.9 °F 46.0 °F 69% 30.16 in 10.0 mi NE 17.3 mph - N/A   Overcast
10:52 PM 55.0 °F 44.1 °F 67% 30.16 in 10.0 mi NE 20.7 mph 28.8 mph N/A   Overcast
11:52 PM 52.0 °F 43.0 °F 71% 30.17 in 10.0 mi NE 17.3 mph - N/A   Clear